This is the latest recevied weather packets stored in our database for station/object NR6G-12. If no packets are shown the sender has not sent any weather packets the latest 10 day(s).
| Time | Temp. | Humidity | Pressure | Rain* | Wind** | Luminosity | Snow |
|---|---|---|---|---|---|---|---|
| 1777506001 | 16.11° C | 47% | 1016.2 hPa | 0 mm | - | - | - |
| 1777505641 | 16.11° C | 51% | 1016.3 hPa | 0 mm | - | - | - |
| 1777505281 | 16.11° C | 53% | 1016.3 hPa | 0 mm | - | - | - |
| 1777504921 | 16.11° C | 54% | 1016.3 hPa | 0 mm | - | - | - |
| 1777504201 | 16.11° C | 48% | 1016.5 hPa | 0 mm | - | - | - |
| 1777503481 | 15.56° C | 54% | 1016.6 hPa | 0 mm | - | - | - |
| 1777501681 | 16.11° C | 58% | 1016.8 hPa | 0 mm | - | - | - |
| 1777500961 | 15.56° C | 53% | 1017 hPa | 0 mm | - | - | - |
| 1777500601 | 15.56° C | 53% | 1017 hPa | 0 mm | - | - | - |
| 1777499760 | 16.11° C | 57% | 1017.1 hPa | 0 mm | - | - | - |
| 1777499401 | 15.56° C | 56% | 1017.2 hPa | 0 mm | - | - | - |
| 1777499040 | 15.56° C | 60% | 1017.2 hPa | 0 mm | - | - | - |
| 1777497300 | 15° C | 61% | 1017.4 hPa | 0 mm | - | - | - |
| 1777495500 | 14.44° C | 62% | 1017.6 hPa | 0 mm | - | - | - |
| 1777495139 | 14.44° C | 59% | 1017.6 hPa | 0 mm | - | - | - |
| 1777494420 | 14.44° C | 64% | 1017.8 hPa | 0 mm | - | - | - |
| 1777494059 | 14.44° C | 66% | 1017.9 hPa | 0 mm | - | - | - |
| 1777492979 | 13.33° C | 68% | 1018 hPa | 0 mm | - | - | - |
| 1777492619 | 13.89° C | 67% | 1018.1 hPa | 0 mm | - | - | - |
| 1777492259 | 13.33° C | 70% | 1018.1 hPa | 0 mm | - | - | - |
| 1777491180 | 13.33° C | 71% | 1018.1 hPa | 0 mm | - | - | - |
| 1777490819 | 13.33° C | 69% | 1018.2 hPa | 0 mm | - | - | - |
| 1777490459 | 12.78° C | 73% | 1018.1 hPa | 0 mm | - | - | - |
| 1777490099 | 12.78° C | 71% | 1018.2 hPa | 0 mm | - | - | - |
| 1777489739 | 12.22° C | 73% | 1018.1 hPa | 0 mm | - | - | - |
* Rain latest hour (hover to see other rain measurements)
** Current wind speed in m/s (hover to see current wind gust speed)